Temperature
3 4 5 5 5 5 5 6 6 8 9 10 11 11 12 12 13 13 13 13 14 14 14 14 14 14 14 14 14 14 14 14 14 14 13 13 12 12 12 11 11 11 10 10
3 5 5 5 6 6 6 6 7 7 8 10 11 11 11 11 12 12 12 12 12 13 13 13 13 13 14 14 14 14 14 14 13 13 13 12 12 12 11 11 10 10 10 10
2 4 4 4 5 6 6 6 6 7 7 8 9 9 10 10 10 10 10 11 11 12 12 13 13 13 14 14 14 13 13 13 13 13 13 12 12 11 11 10 10 10 10 10
1 2 2 4 6 6 6 6 6 6 7 7 8 9 9 9 9 9 9 10 10 11 11 12 12 13 13 13 13 13 13 13 13 13 12 12 11 11 11 10 10 10 10 10
1 1 3 5 5 5 5 5 5 5 6 6 7 9 9 8 8 8 9 9 10 11 11 11 12 12 13 12 12 12 12 12 12 12 12 11 11 10 10 10 10 10 9 9
1 1 3 4 5 5 5 4 4 5 5 5 6 6 7 7 7 8 8 9 10 10 11 11 11 12 12 12 12 12 12 12 12 12 12 11 11 10 10 10 9 9 9 9
0 1 3 4 5 5 4 3 4 4 4 4 4 5 5 6 6 7 8 8 9 10 10 11 11 11 11 11 11 12 12 12 12 11 11 11 10 10 9 9 9 9 9 8
1 1 2 4 4 3 3 4 4 4 4 4 5 5 5 5 6 7 7 8 9 9 10 10 10 11 11 11 11 11 11 11 11 11 10 10 10 9 9 9 9 8 8 8
1 2 4 5 4 4 4 4 4 4 4 4 4 4 4 5 5 6 6 7 8 9 9 10 10 10 11 11 11 11 11 11 10 10 10 10 9 9 9 8 8 8 8 7
2 3 4 5 5 4 4 4 4 4 4 4 4 4 4 4 5 5 6 7 7 8 8 9 9 10 10 11 11 11 10 10 10 10 9 9 9 9 9 8 8 8 7 7
2 3 4 4 5 4 4 4 4 4 4 4 4 4 4 4 4 5 5 6 7 7 8 8 9 9 9 10 10 10 10 9 9 9 9 8 8 8 8 8 8 8 7 7
1 3 3 3 4 4 4 4 3 3 3 3 3 3 3 4 4 5 5 6 6 7 8 8 8 9 9 9 10 10 9 9 9 8 8 8 8 7 6 7 7 6 6 6
3 3 3 4 3 3 3 3 3 3 3 3 3 3 3 3 4 4 5 5 6 6 7 7 8 8 8 9 9 10 10 9 9 8 8 8 7 7 6 6 6 5 5 5
3 3 3 3 3 3 3 3 3 3 3 3 3 3 3 3 3 4 5 5 6 6 6 7 7 7 8 8 8 9 9 9 9 8 8 8 7 7 7 6 5 5 4 4
2 2 2 2 2 2 2 2 2 2 2 2 2 2 3 3 3 4 4 5 5 5 6 6 6 7 7 7 8 8 8 8 8 8 7 7 7 6 6 6 5 5 4 3
1 1 2 2 2 2 2 2 2 2 2 2 2 2 2 3 3 3 4 4 5 5 5 5 6 6 7 7 7 7 8 8 8 7 7 7 6 6 5 5 5 4 4 3
1 1 1 1 1 1 1 1 2 2 2 2 2 2 2 2 3 3 3 4 4 4 5 5 6 6 6 7 7 7 7 7 7 7 6 6 6 6 5 5 4 4 3 3
-0 -0 -0 -0 0 0 1 1 1 1 1 2 2 2 2 2 2 2 3 3 3 4 4 4 5 5 6 6 7 7 7 7 6 6 6 6 5 5 5 4 4 3 2 2
-1 -1 -1 -0 -0 -0 0 0 1 1 1 1 1 1 1 1 1 2 2 2 3 3 3 4 4 5 5 6 6 6 6 6 6 6 5 5 5 4 4 4 3 3 2 2
-2 -2 -1 -1 -1 -1 -0 0 0 0 1 1 1 1 1 1 1 1 1 2 2 3 3 3 4 4 5 5 6 6 6 6 5 5 5 5 4 4 3 3 2 2 1 1
-3 -3 -2 -2 -2 -1 -1 -0 -0 0 0 0 0 0 0 0 1 1 1 1 1 2 2 3 3 4 4 5 5 5 5 5 5 5 5 4 4 3 3 2 2 1 1 0
-4 -3 -3 -3 -2 -2 -1 -1 -0 -0 -0 -0 -0 -0 -0 -0 0 0 1 1 1 2 2 2 3 3 4 4 4 4 5 5 5 4 4 4 3 3 2 2 1 1 0 -0
-4 -4 -3 -3 -3 -2 -2 -1 -1 -1 -1 -1 -1 -1 -1 -0 -0 0 0 1 1 1 2 2 2 3 3 3 4 4 4 4 4 4 3 3 3 2 2 1 1 0 -1 -1
-5 -4 -4 -4 -3 -3 -2 -2 -2 -1 -1 -1 -1 -1 -1 -1 -0 -0 0 0 1 1 1 2 2 2 3 3 3 3 3 3 3 3 3 2 2 1 1 0 -0 -1 -1 -2
-5 -5 -4 -4 -4 -4 -3 -3 -3 -2 -2 -2 -2 -2 -1 -1 -0 -0 -0 -0 0 0 1 1 1 2 2 3 3 3 3 2 2 2 2 1 1 1 0 -0 -1 -1 -2 -2
-6 -5 -5 -5 -4 -4 -4 -4 -3 -3 -3 -3 -3 -2 -2 -1 -1 -1 -1 -1 -0 -0 0 0 0 1 1 2 2 2 2 1 1 1 1 1 0 -0 -1 -1 -1 -2 -2 -3
-6 -6 -5 -5 -5 -5 -4 -4 -4 -4 -3 -3 -3 -3 -2 -2 -2 -2 -1 -1 -1 -1 -1 -0 -0 0 1 1 1 1 1 1 0 0 -0 -0 -0 -1 -1 -2 -2 -3 -3 -3
Wind_Speed
13 14 13 13 13 11 12 12 10 12 13 12 9 7 5 3 4 3 2 3 5 7 8 8 9 10 10 11 11 12 12 12 13 13 13 13 13 12 12 12 12 12 12 11
12 13 12 14 13 12 13 13 15 16 14 10 9 7 5 4 4 3 2 1 2 4 7 9 9 10 10 10 11 12 13 12 12 12 13 13 13 12 12 12 12 12 12 12
7 10 11 9 8 9 9 9 10 12 11 11 10 9 6 5 3 3 3 1 2 3 4 7 9 9 10 11 11 11 12 12 12 13 13 13 13 13 13 12 12 11 11 11
5 7 7 5 4 5 7 6 5 8 9 10 11 9 4 6 6 5 4 3 1 1 2 4 6 8 8 10 11 11 12 12 12 13 14 13 13 13 12 11 11 11 11 11
4 6 9 6 4 5 5 3 4 7 9 11 13 8 2 9 8 6 5 4 2 1 1 4 7 9 10 10 11 11 12 13 13 14 14 14 14 13 11 11 10 10 10 11
5 5 5 3 7 8 4 2 5 7 8 10 10 5 5 10 10 8 7 5 3 1 2 4 7 9 10 10 11 12 12 13 13 13 14 14 14 12 11 11 11 11 10 10
8 7 6 5 7 6 1 3 6 7 8 8 5 6 8 10 9 8 6 6 4 1 3 4 7 9 10 10 10 10 11 12 12 13 13 13 12 11 13 12 12 11 11 10
6 7 6 4 3 1 3 5 6 6 7 8 8 9 9 9 8 8 7 5 4 1 1 3 6 9 9 10 10 10 11 12 13 13 12 12 14 12 13 14 14 12 12 10
5 6 5 4 3 3 3 6 7 6 8 9 9 9 10 9 9 7 6 5 4 1 1 3 4 7 9 9 12 12 12 13 13 14 13 13 14 14 12 12 11 10 10 10
7 8 8 8 6 4 5 7 8 8 8 8 9 9 9 9 8 7 6 5 4 2 2 3 4 5 7 10 13 14 14 14 14 14 13 12 10 10 11 11 11 11 10 10
11 11 10 9 8 7 7 8 9 9 9 8 9 9 9 8 8 7 6 5 4 2 3 3 4 5 7 11 14 15 14 14 14 13 14 12 10 8 9 7 11 13 10 10
11 9 9 10 9 8 9 10 10 10 10 8 8 9 9 8 7 6 6 5 4 3 2 3 5 6 8 10 14 16 15 14 12 12 12 13 13 12 15 13 16 16 14 13
13 12 12 12 12 11 11 11 10 9 9 9 8 8 8 8 7 6 6 6 4 3 3 4 5 7 8 10 13 14 15 14 12 13 13 13 13 14 13 14 19 18 18 18
11 11 13 13 12 11 10 10 9 9 9 8 8 8 7 7 7 7 7 6 4 3 3 4 6 7 8 10 12 13 14 15 14 12 13 13 12 12 13 14 12 10 13 18
11 11 12 12 12 11 10 9 9 9 8 8 7 7 7 6 7 7 6 4 3 3 4 5 7 7 8 10 13 15 14 12 13 13 12 13 13 13 12 13 13 12 10 11
10 10 11 11 11 10 9 9 9 9 8 7 7 7 6 6 6 5 4 3 4 5 6 6 7 8 9 11 14 13 12 17 16 14 13 13 13 13 13 12 12 11 10 9
9 10 10 10 11 11 10 9 9 8 7 7 7 6 5 5 4 3 2 2 3 4 5 6 7 8 9 12 13 12 13 15 18 15 13 13 13 13 12 12 11 10 9 10
8 10 10 10 10 10 10 8 7 7 6 6 6 5 5 4 4 3 2 3 4 4 4 5 8 10 10 12 12 12 13 13 13 13 13 12 12 12 12 12 12 12 9 10
8 9 10 10 10 9 9 8 7 6 6 5 5 5 5 4 4 3 4 5 6 6 4 7 11 11 11 12 14 12 14 14 14 13 13 16 14 12 11 12 11 11 10 9
9 10 10 10 9 8 8 7 6 5 5 4 4 4 3 3 3 4 4 3 3 4 7 9 11 11 12 13 15 13 14 15 15 14 13 13 12 12 11 12 11 11 9 9
10 10 10 10 9 8 7 6 5 5 4 3 4 4 4 3 4 5 6 4 3 6 9 12 10 10 11 13 16 13 14 14 14 14 14 13 12 12 12 11 11 10 9 9
10 10 10 9 8 8 6 5 4 3 3 3 3 3 4 4 5 5 4 4 6 9 8 8 9 13 15 16 12 13 14 14 13 12 12 12 12 12 11 11 10 9 9 8
10 10 9 9 8 7 5 4 3 2 3 3 4 5 5 5 5 6 6 4 6 11 9 9 14 20 21 14 12 13 14 14 13 12 12 12 12 11 11 11 10 9 9 8
10 9 9 8 6 5 4 3 1 1 2 2 3 4 5 6 5 4 6 11 13 14 10 14 20 21 19 12 12 13 13 13 13 12 12 11 11 11 10 10 10 9 8 9
9 8 7 6 5 4 3 2 1 2 2 3 4 4 4 5 6 7 8 11 15 15 12 16 21 20 14 12 12 12 12 12 13 13 12 12 11 11 10 9 9 9 8 7
8 7 6 5 4 2 2 2 2 3 4 5 5 5 6 7 9 9 9 11 14 15 12 11 12 14 12 12 13 13 12 13 14 12 12 11 11 11 10 9 10 8 7 7
6 5 3 2 2 2 2 3 3 4 5 6 7 7 8 8 9 10 11 11 11 11 11 10 10 11 11 12 12 12 11 11 11 11 11 10 10 9 10 10 8 7 7 7
Wind_Direction
284 288 284 275 270 259 244 241 247 265 272 284 304 319 332 356 13 26 137 166 174 170 165 164 162 162 162 165 166 164 166 171 174 173 170 168 167 167 165 165 166 165 165 167
287 286 288 281 270 261 254 247 251 267 275 290 312 324 343 1 18 21 46 117 162 172 166 166 161 158 157 158 160 161 164 166 163 163 163 162 161 159 157 158 157 158 161 162
283 296 301 274 259 250 244 237 244 256 272 310 318 322 340 1 11 18 6 359 170 167 168 163 158 156 157 158 155 158 160 159 158 158 158 157 155 155 157 157 154 155 157 156
279 292 257 258 325 294 254 237 267 279 298 307 307 301 360 26 6 356 348 337 301 190 170 158 148 145 145 149 153 155 155 156 156 155 155 153 152 155 155 154 154 154 152 152
261 272 276 282 322 318 279 260 336 316 319 324 321 302 337 9 351 341 340 332 299 230 164 155 148 143 142 148 149 152 156 157 157 156 154 153 153 153 148 145 145 147 147 147
249 267 270 327 342 325 293 255 345 332 333 338 340 315 319 340 342 343 347 342 336 42 109 144 149 143 146 153 154 159 158 156 153 153 153 152 150 145 140 140 139 138 136 139
235 253 269 322 338 351 338 297 326 334 336 341 328 300 312 325 332 336 337 333 337 90 149 162 152 148 153 156 162 157 147 144 145 147 146 143 139 137 135 133 131 129 125 125
225 239 256 332 357 9 282 305 321 327 327 323 314 313 318 325 328 334 334 336 337 356 156 158 154 152 154 159 151 141 139 139 140 139 138 137 134 134 135 134 131 128 124 119
226 245 282 288 288 275 288 305 312 315 314 315 314 315 319 322 324 325 328 328 323 310 180 160 158 155 156 153 143 139 136 135 134 132 133 136 137 137 137 136 135 135 133 129
265 266 284 292 291 285 289 294 301 305 303 305 306 306 310 315 317 320 319 314 308 279 192 179 165 154 152 147 142 139 138 136 134 131 130 128 129 135 138 141 139 138 138 135
271 277 283 276 277 285 293 301 303 303 300 299 304 303 300 303 307 308 309 302 297 256 213 183 154 145 143 145 141 138 137 136 132 129 126 119 108 107 124 131 145 146 146 144
260 268 277 286 291 297 299 297 296 295 295 293 293 296 297 296 296 294 294 291 287 266 221 171 151 146 146 147 144 141 140 138 134 131 126 122 113 94 76 96 106 112 121 126
263 272 276 282 286 288 288 289 290 291 290 291 289 285 286 286 287 285 283 277 264 245 210 167 150 148 149 149 146 145 144 141 137 135 133 131 127 122 112 90 88 98 109 115
269 273 274 276 280 284 282 284 286 286 283 284 286 286 280 280 282 281 278 273 256 223 189 165 152 153 150 146 143 140 138 137 137 136 135 133 131 128 128 126 118 104 104 114
267 266 270 275 275 276 275 276 277 277 279 283 284 283 278 277 277 277 273 256 231 189 176 163 154 152 145 143 142 140 138 138 135 132 130 129 127 124 123 121 121 120 114 113
279 276 273 274 274 276 276 274 271 272 273 275 279 280 274 271 273 274 265 228 194 185 175 164 160 151 144 142 138 136 134 133 132 131 129 128 127 127 127 127 127 128 129 129
283 279 277 278 276 275 272 269 267 267 268 269 273 273 269 268 269 266 259 212 177 172 162 158 152 141 140 141 138 137 134 133 128 127 130 131 131 131 131 130 130 128 129 135
281 280 279 277 277 278 278 273 267 266 263 266 270 259 251 247 244 238 201 142 127 122 128 142 139 134 135 136 135 135 134 134 133 131 130 129 128 128 129 128 129 126 125 127
307 297 291 285 279 276 276 275 270 265 262 262 252 245 240 231 216 196 164 148 149 147 146 138 135 134 133 135 134 132 131 129 127 125 125 127 124 125 126 127 127 127 128 126
310 306 300 295 290 280 274 272 270 267 262 250 238 229 222 215 187 162 147 149 172 158 145 140 136 133 133 135 131 132 131 131 129 128 126 127 128 127 127 127 127 129 129 128
307 305 303 299 295 290 279 271 262 257 253 230 215 212 201 180 154 147 144 145 138 135 138 136 135 134 133 135 128 131 131 130 130 131 131 130 129 128 128 128 129 130 130 128
302 299 295 293 292 290 286 274 256 247 234 210 193 178 163 152 145 137 137 145 140 137 135 132 131 131 134 129 128 129 129 128 128 129 130 131 132 132 132 131 130 130 129 129
298 295 293 292 288 285 283 276 256 230 212 194 178 172 166 160 154 148 144 138 134 131 129 128 131 131 129 124 126 126 126 126 128 129 129 130 131 132 133 131 130 130 130 130
295 294 291 290 287 275 270 273 259 198 174 166 160 157 152 142 129 122 124 129 129 124 122 127 129 128 124 122 123 123 124 124 125 125 125 124 125 126 128 128 128 127 129 129
295 290 284 280 274 262 250 233 170 146 142 134 122 124 128 129 129 126 122 125 126 120 118 124 125 122 119 119 121 121 122 124 125 125 125 126 127 127 127 127 128 129 130 130
294 290 282 271 260 245 222 199 183 164 151 137 122 115 112 112 115 117 117 117 116 115 114 117 118 115 115 116 117 118 119 121 119 119 122 124 125 125 126 126 125 127 128 128
296 290 281 272 250 223 208 187 169 160 152 142 130 123 120 118 117 117 116 116 115 113 111 110 112 113 115 115 115 114 114 115 117 118 120 121 123 124 126 125 125 125 125 128
Height
1384 1377 1374 1371 1368 1366 1366 1364 1362 1348 1341 1336 1331 1329 1326 1323 1322 1322 1323 1325 1328 1331 1334 1338 1343 1348 1353 1359 1365 1371 1377 1383 1388 1395 1401 1408 1413 1419 1425 1430 1435 1440 1445 1449
1382 1372 1368 1364 1360 1359 1358 1356 1353 1347 1342 1336 1333 1331 1327 1326 1325 1325 1325 1326 1327 1330 1333 1336 1340 1344 1350 1355 1360 1367 1372 1378 1384 1391 1397 1403 1408 1414 1420 1426 1431 1436 1441 1445
1384 1372 1367 1363 1354 1352 1352 1351 1350 1348 1343 1338 1336 1333 1331 1330 1328 1327 1327 1327 1328 1329 1331 1334 1337 1341 1346 1352 1357 1363 1368 1374 1380 1387 1392 1398 1404 1410 1416 1421 1427 1432 1437 1441
1386 1379 1378 1358 1349 1347 1346 1347 1349 1346 1342 1339 1337 1333 1332 1332 1331 1330 1329 1328 1328 1329 1330 1333 1336 1341 1345 1350 1355 1360 1365 1371 1377 1382 1388 1394 1400 1406 1412 1417 1423 1428 1433 1438
1386 1379 1365 1353 1350 1350 1347 1347 1349 1346 1343 1339 1335 1331 1330 1331 1332 1331 1330 1329 1329 1329 1330 1332 1335 1339 1343 1348 1353 1357 1362 1368 1373 1379 1384 1390 1396 1402 1408 1414 1419 1425 1430 1435
1384 1379 1365 1354 1349 1346 1345 1349 1349 1346 1344 1342 1338 1336 1334 1333 1331 1330 1329 1329 1328 1329 1330 1332 1335 1338 1342 1346 1351 1355 1360 1365 1370 1376 1382 1387 1393 1400 1405 1411 1417 1422 1427 1432
1380 1375 1361 1354 1350 1346 1352 1354 1349 1347 1345 1344 1342 1342 1339 1334 1332 1330 1329 1329 1328 1329 1330 1332 1334 1338 1341 1345 1349 1354 1358 1363 1369 1374 1380 1386 1392 1398 1403 1409 1415 1420 1425 1430
1374 1373 1364 1353 1350 1354 1354 1350 1348 1346 1344 1343 1341 1339 1336 1334 1331 1329 1328 1327 1328 1328 1329 1331 1334 1337 1339 1343 1347 1352 1357 1362 1367 1373 1379 1384 1390 1396 1402 1407 1413 1418 1423 1428
1367 1363 1355 1352 1351 1350 1350 1349 1347 1345 1343 1341 1339 1336 1334 1331 1329 1328 1327 1327 1327 1327 1328 1330 1333 1335 1338 1342 1346 1350 1355 1360 1366 1371 1377 1383 1389 1394 1400 1405 1410 1415 1421 1425
1358 1353 1351 1349 1349 1348 1347 1346 1344 1343 1341 1339 1336 1334 1332 1329 1327 1326 1325 1325 1326 1326 1327 1329 1331 1334 1337 1340 1344 1348 1353 1359 1364 1370 1376 1382 1388 1394 1398 1403 1408 1414 1418 1423
1355 1351 1349 1346 1346 1345 1344 1343 1341 1339 1338 1336 1333 1331 1329 1327 1325 1324 1324 1323 1323 1324 1325 1327 1329 1332 1335 1338 1342 1346 1352 1357 1363 1368 1374 1380 1386 1393 1398 1403 1408 1413 1417 1422
1351 1348 1347 1343 1342 1341 1340 1339 1337 1335 1333 1331 1330 1327 1325 1324 1322 1321 1321 1320 1320 1321 1322 1324 1327 1330 1333 1337 1340 1344 1349 1355 1361 1366 1372 1378 1384 1391 1398 1404 1409 1414 1418 1422
1343 1342 1341 1339 1338 1337 1336 1334 1333 1331 1329 1327 1325 1324 1322 1320 1319 1318 1317 1317 1317 1318 1320 1322 1324 1327 1331 1335 1339 1343 1347 1353 1359 1365 1371 1377 1383 1388 1394 1402 1408 1413 1417 1422
1338 1337 1335 1333 1332 1332 1331 1330 1328 1326 1324 1323 1321 1319 1318 1316 1315 1314 1313 1313 1314 1315 1317 1319 1322 1325 1329 1332 1337 1342 1347 1353 1358 1364 1370 1376 1382 1388 1394 1399 1404 1411 1416 1421
1331 1331 1329 1327 1326 1326 1325 1324 1322 1320 1319 1318 1317 1315 1313 1312 1311 1310 1310 1310 1311 1312 1314 1316 1319 1322 1326 1331 1335 1341 1346 1351 1358 1364 1370 1376 1382 1388 1394 1399 1404 1409 1414 1419
1325 1324 1323 1322 1320 1319 1319 1318 1317 1315 1314 1313 1312 1311 1309 1308 1307 1306 1306 1307 1308 1309 1311 1314 1316 1320 1324 1329 1334 1340 1346 1351 1357 1363 1369 1376 1382 1388 1393 1399 1404 1409 1413 1418
1320 1318 1317 1315 1314 1313 1313 1312 1311 1310 1309 1308 1307 1306 1305 1304 1303 1303 1303 1304 1306 1307 1309 1311 1314 1318 1323 1328 1333 1338 1344 1351 1357 1363 1369 1375 1381 1387 1393 1398 1403 1408 1413 1417
1315 1313 1312 1311 1309 1308 1307 1306 1306 1305 1304 1303 1303 1302 1301 1301 1300 1300 1301 1302 1303 1304 1307 1309 1312 1316 1321 1327 1333 1338 1344 1350 1357 1363 1369 1376 1381 1387 1393 1398 1403 1408 1412 1416
1309 1308 1306 1305 1304 1303 1301 1301 1300 1299 1299 1299 1298 1297 1297 1297 1297 1298 1299 1299 1300 1301 1304 1308 1312 1316 1321 1327 1333 1339 1344 1351 1357 1364 1370 1376 1382 1387 1393 1398 1403 1408 1412 1415
1305 1303 1301 1299 1298 1297 1296 1295 1295 1294 1294 1294 1293 1293 1293 1293 1294 1295 1296 1297 1299 1300 1303 1307 1311 1316 1321 1327 1333 1339 1345 1351 1357 1363 1370 1376 1382 1387 1392 1397 1402 1407 1411 1415
1300 1298 1296 1294 1292 1291 1291 1290 1290 1289 1289 1290 1289 1289 1289 1290 1291 1293 1294 1296 1299 1301 1303 1307 1311 1316 1321 1327 1334 1340 1346 1352 1358 1363 1369 1376 1381 1387 1392 1397 1402 1406 1410 1414
1295 1293 1291 1289 1287 1286 1285 1285 1285 1285 1285 1285 1285 1286 1287 1288 1290 1292 1293 1295 1297 1300 1303 1307 1311 1316 1322 1328 1334 1340 1346 1352 1358 1364 1370 1376 1381 1386 1391 1396 1401 1405 1409 1413
1290 1287 1285 1284 1282 1281 1281 1281 1281 1281 1281 1282 1282 1283 1285 1286 1288 1289 1291 1295 1297 1301 1304 1308 1313 1318 1324 1330 1335 1341 1347 1353 1359 1365 1370 1376 1381 1386 1391 1395 1400 1404 1408 1412
1283 1281 1280 1279 1278 1277 1276 1276 1277 1278 1278 1279 1280 1281 1283 1285 1287 1289 1292 1295 1298 1302 1305 1310 1315 1320 1326 1331 1337 1343 1349 1354 1360 1366 1371 1376 1382 1386 1391 1395 1399 1404 1408 1411
1278 1276 1274 1273 1272 1272 1272 1272 1273 1274 1275 1276 1278 1280 1282 1284 1286 1289 1292 1295 1299 1303 1307 1312 1317 1322 1328 1333 1339 1344 1350 1356 1361 1366 1371 1376 1381 1386 1391 1395 1399 1403 1407 1410
1273 1271 1269 1268 1268 1268 1269 1269 1270 1271 1273 1274 1276 1279 1281 1284 1287 1290 1293 1297 1300 1304 1308 1314 1319 1325 1330 1335 1341 1347 1352 1358 1363 1368 1373 1377 1382 1386 1391 1395 1399 1403 1406 1409
1268 1266 1265 1264 1264 1265 1265 1266 1268 1269 1271 1273 1275 1279 1282 1285 1288 1291 1295 1298 1302 1307 1311 1316 1321 1327 1332 1337 1343 1349 1354 1359 1364 1369 1374 1378 1383 1387 1391 1395 1399 1402 1406 1409